EW4389 Weather Reports


Display with metric or nautical units.
time (UTC)temp
F
wind
direction
speed
MPH
gust
MPH
rain 1hr
in
rain 24hr
in
rain mn
in
humidity
%
barometer
mb
20260510191529 57 354 9.0 18.0 0.00 0.15 0.00 59 1012.0
20260510190028 56 334 9.0 16.0 0.00 0.15 0.00 60 1011.9
20260510184523 56 304 9.0 15.0 0.00 0.15 0.00 60 1011.8
20260510183021 55 348 10.0 21.0 0.00 0.15 0.00 61 1011.8
20260510181522 56 295 12.0 17.0 0.00 0.15 0.00 61 1011.7
20260510180018 54 325 7.0 18.0 0.00 0.15 0.00 59 1011.5
20260510174518 56 1 11.0 18.0 0.00 0.15 0.00 61 1011.5
20260510173018 55 1 10.0 18.0 0.00 0.15 0.00 63 1011.3
20260510171514 55 339 6.0 15.0 0.00 0.15 0.00 62 1011.2
20260510170014 56 288 10.0 20.0 0.00 0.15 0.00 57 1011.2
20260510164515 55 323 13.0 21.0 0.00 0.15 0.00 61 1011.0
20260510163010 55 320 10.0 20.0 0.00 0.15 0.00 61 1011.0
20260510161511 55 316 8.0 17.0 0.00 0.15 0.00 65 1011.0
20260510160008 56 329 9.0 17.0 0.00 0.15 0.00 63 1011.0
20260510154506 54 323 11.0 18.0 0.00 0.15 0.00 61 1010.8
20260510153005 54 334 11.0 16.0 0.00 0.15 0.00 64 1011.0
20260510151502 55 315 9.0 15.0 0.00 0.15 0.00 65 1010.7
20260510150113 53 339 11.0 15.0 0.00 0.15 0.00 61 1010.5
20260510144559 53 348 7.0 13.0 0.00 0.15 0.00 65 1010.2
20260510143109 53 344 10.0 14.0 0.00 0.15 0.00 60 1010.2
20260510141554 52 317 5.0 13.0 0.00 0.15 0.00 63 1010.1
20260510140052 52 310 7.0 14.0 0.00 0.15 0.00 63 1009.8
20260510134556 51 264 5.0 13.0 0.00 0.15 0.00 64 1009.6
20260510133046 51 300 6.0 14.0 0.00 0.15 0.00 62 1009.4
20260510131545 50 294 7.0 12.0 0.00 0.15 0.00 63 1009.2
20260510130046 49 325 5.0 12.0 0.00 0.15 0.00 67 1009.1
20260510124549 49 315 7.0 10.0 0.00 0.15 0.00 67 1009.2
20260510123041 48 320 4.0 11.0 0.00 0.15 0.00 69 1009.2
20260510121540 47 324 4.0 9.0 0.00 0.15 0.00 69 1009.1
20260510120038 46 325 7.0 11.0 0.00 0.15 0.00 69 1009.0
20260510114536 46 324 7.0 10.0 0.00 0.15 0.00 69 1008.7
20260510113033 45 344 3.0 6.0 0.00 0.15 0.00 69 1008.6
20260510111532 45 344 2.0 4.0 0.00 0.15 0.00 70 1008.3
20260510110029 45 344 2.0 8.0 0.00 0.15 0.00 69 1008.0
20260510104526 45 358 1.0 3.0 0.00 0.15 0.00 70 1007.3
20260510103026 45 358 1.0 4.0 0.00 0.15 0.00 70 1007.3
20260510101523 45 358 2.0 4.0 0.00 0.15 0.00 70 1007.2
20260510100021 45 358 3.0 7.0 0.00 0.15 0.00 70 1007.2
20260510094519 46 358 5.0 11.0 0.00 0.15 0.00 69 1006.5
20260510093016 47 11 7.0 13.0 0.00 0.15 0.00 64 1006.3
20260510091514 48 339 6.0 10.0 0.00 0.15 0.00 60 1006.1
20260510090014 49 339 9.0 14.0 0.00 0.15 0.00 56 1006.2
20260510084505 50 344 6.0 17.0 0.00 0.15 0.00 50 1005.6
20260510083003 51 295 5.0 9.0 0.00 0.15 0.00 49 1005.5
20260510081505 51 283 2.0 6.0 0.00 0.15 0.00 50 1005.3
20260510080104 51 283 3.0 6.0 0.00 0.15 0.00 50 1005.1
20260510074558 51 282 3.0 9.0 0.00 0.15 0.00 50 1005.0
20260510073104 51 276 4.0 10.0 0.00 0.15 0.00 50 1004.9
20260510071558 51 271 3.0 12.0 0.00 0.15 0.00 50 1004.8
20260510070054 51 279 3.0 6.0 0.00 0.15 0.00 50 1004.7
20260510064557 50 281 5.0 9.0 0.00 0.15 0.00 50 1004.5
20260510063050 50 238 5.0 12.0 0.00 0.15 0.00 50 1004.0
20260510061549 50 275 4.0 10.0 0.00 0.15 0.00 50 1004.5
20260510060050 49 273 5.0 10.0 0.00 0.15 0.00 52 1004.2
20260510054544 50 257 3.0 9.0 0.00 0.15 0.00 52 1004.1
20260510053146 50 271 3.0 9.0 0.00 0.15 0.00 52 1003.9
20260510051548 50 260 3.0 9.0 0.00 0.15 0.00 53 1004.1
20260510050041 50 247 4.0 10.0 0.00 0.15 0.00 52 1003.8
20260510044554 50 272 4.0 11.0 0.00 0.15 0.00 52 1004.1
20260510043047 50 254 8.0 16.0 0.00 0.15 0.00 52 1004.0
20260510041536 50 259 6.0 11.0 0.00 0.15 0.00 53 1004.0
20260510040041 50 233 6.0 16.0 0.00 0.15 0.15 53 1003.9
20260510034534 50 246 7.0 16.0 0.00 0.15 0.15 52 1003.7
20260510033047 50 256 10.0 16.0 0.00 0.15 0.15 51 1003.6
20260510031536 50 279 7.0 16.0 0.00 0.15 0.15 50 1003.4
20260510030041 50 233 6.0 12.0 0.00 0.15 0.15 50 1003.5
20260510024529 50 251 5.0 10.0 0.02 0.15 0.15 49 1003.6
20260510023028 50 244 3.0 9.0 0.05 0.15 0.15 49 1003.4
20260510021528 51 226 3.0 7.0 0.08 0.15 0.15 49 1003.2
20260510020029 51 223 6.0 14.0 0.10 0.15 0.15 49 1002.7
20260510014534 51 244 9.0 14.0 0.08 0.13 0.13 50 1003.8
20260510013025 51 300 5.0 12.0 0.07 0.10 0.10 52 1003.7
20260510011525 51 288 5.0 14.0 0.07 0.07 0.07 53 1003.7
20260510010027 51 288 5.0 18.0 0.05 0.05 0.05 56 1003.5
20260510004524 51 317 8.0 19.0 0.05 0.05 0.05 63 1003.2
20260510003024 56 284 20.0 44.0 0.03 0.03 0.03 72 1002.6
20260510001522 60 233 6.0 12.0 0.00 0.00 0.00 67 1001.1
20260510000021 60 250 5.0 11.0 0.00 0.00 0.00 66 1001.1
20260509234530 60 240 2.0 11.0 0.00 0.00 0.00 65 1000.7
20260509233021 61 231 4.0 12.0 0.00 0.00 0.00 64 1000.5
20260509231521 61 250 4.0 11.0 0.00 0.00 0.00 64 1000.5
20260509230022 61 252 4.0 11.0 0.00 0.00 0.00 64 1000.6
20260509224518 61 256 6.0 15.0 0.00 0.00 0.00 63 1000.7
20260509223017 62 257 6.0 14.0 0.00 0.00 0.00 63 1000.7
20260509221518 62 217 7.0 16.0 0.00 0.00 0.00 62 1000.7
20260509220016 63 257 8.0 17.0 0.00 0.00 0.00 62 1000.6
20260509214515 63 253 9.0 16.0 0.00 0.00 0.00 62 1000.7
20260509213014 62 251 7.0 19.0 0.00 0.00 0.00 62 1000.8
20260509211513 62 220 9.0 18.0 0.00 0.00 0.00 61 1000.8
20260509210018 62 219 13.0 18.0 0.00 0.00 0.00 63 1000.9
20260509204510 62 248 7.0 22.0 0.00 0.00 0.00 66 1001.1
20260509203009 63 221 11.0 21.0 0.00 0.00 0.00 63 1001.3
20260509201507 63 260 6.0 17.0 0.00 0.00 0.00 65 1001.3
20260509200006 62 264 10.0 23.0 0.00 0.00 0.00 65 1001.6
20260509194505 63 249 8.0 18.0 0.00 0.00 0.00 63 1001.7
20260509193004 62 236 9.0 21.0 0.00 0.00 0.00 65 1001.7